TimeEST,TemperatureF,Dew PointF,Humidity,Sea Level PressureIn,VisibilityMPH,Wind Direction,Wind SpeedMPH,Gust SpeedMPH,PrecipitationIn,Events,Conditions,WindDirDegrees,DateUTC
12:55 AM,58.5,56.3,93,30.25,10.0,East,6.9,-,N/A,,Clear,80,2012-12-04 05:55:00
1:55 AM,58.3,57.9,99,30.24,10.0,East,6.9,-,N/A,,Clear,100,2012-12-04 06:55:00
2:55 AM,60.4,59.7,97,30.23,10.0,East,4.6,-,N/A,,Clear,90,2012-12-04 07:55:00
3:55 AM,57.2,56.3,97,30.23,10.0,East,6.9,-,N/A,,Clear,100,2012-12-04 08:55:00
4:55 AM,58.5,58.1,99,30.22,10.0,East,8.1,-,N/A,,Clear,90,2012-12-04 09:55:00
5:55 AM,61.0,60.1,97,30.23,10.0,East,6.9,-,N/A,,Clear,90,2012-12-04 10:55:00
6:55 AM,59.2,58.8,99,30.25,10.0,East,9.2,-,N/A,,Clear,80,2012-12-04 11:55:00
7:55 AM,60.8,60.4,99,30.26,10.0,East,9.2,-,N/A,,Clear,90,2012-12-04 12:55:00
8:55 AM,67.3,60.6,79,30.28,10.0,East,8.1,-,N/A,,Clear,90,2012-12-04 13:55:00
9:55 AM,72.0,59.7,65,30.30,10.0,East,9.2,-,N/A,,Clear,80,2012-12-04 14:55:00
10:55 AM,75.9,56.1,50,30.29,10.0,ESE,9.2,-,N/A,,Clear,120,2012-12-04 15:55:00
11:55 AM,78.1,54.5,44,30.26,10.0,SSE,6.9,-,N/A,,Clear,150,2012-12-04 16:55:00
12:55 PM,80.2,50.2,35,30.23,10.0,Variable,3.5,-,N/A,,Clear,0,2012-12-04 17:55:00
1:55 PM,82.9,53.4,36,30.21,10.0,WNW,4.6,-,N/A,,Clear,290,2012-12-04 18:55:00
2:55 PM,81.7,52.5,36,30.19,10.0,ESE,9.2,-,N/A,,Clear,110,2012-12-04 19:55:00
3:55 PM,79.3,54.3,42,30.19,10.0,ESE,8.1,-,N/A,,Clear,110,2012-12-04 20:55:00
4:55 PM,76.8,57.6,51,30.20,10.0,East,5.8,-,N/A,,Mostly Cloudy,100,2012-12-04 21:55:00
5:55 PM,73.4,57.6,58,30.20,10.0,ESE,6.9,-,N/A,,Mostly Cloudy,110,2012-12-04 22:55:00
6:38 PM,71.6,59.0,64,30.21,10.0,ESE,8.1,-,N/A,,Mostly Cloudy,110,2012-12-04 23:38:00
6:55 PM,71.1,59.0,66,30.21,10.0,ESE,8.1,-,N/A,,Scattered Clouds,110,2012-12-04 23:55:00
7:55 PM,68.0,60.4,77,30.21,10.0,ESE,6.9,-,N/A,,Clear,110,2012-12-05 00:55:00
8:55 PM,66.9,60.3,79,30.22,10.0,ESE,6.9,-,N/A,,Clear,110,2012-12-05 01:55:00
9:55 PM,65.3,59.7,82,30.21,10.0,East,8.1,-,N/A,,Clear,100,2012-12-05 02:55:00
10:55 PM,63.9,59.4,85,30.21,10.0,East,6.9,-,N/A,,Clear,100,2012-12-05 03:55:00
11:55 PM,59.9,56.3,88,30.21,10.0,East,6.9,-,N/A,,Clear,90,2012-12-05 04:55:00